User: anonymous   Login
Location: Killam
(52.7910°N, 111.8608°W)
Time: 23:01:40
(UTC+00:00)
Language:

METEOR M2 - Orbit

View from above orbital plane
View from above orbital plane
View from above satellite
View from above satellite

Ground track
Ground track

The orbit is defined by the following mean orbital elements,

1 40069U          26073.61078189 +.00000000 +00000-0 +42076-4 0 00003
2 40069  98.5032  52.7426 0005103 322.4027  37.6793 14.21430958    05
Epoch (UTC): 14 March 2026 14:39:31
Eccentricity: 0.0005103
inclination: 98.5032°
perigee height: 817 km
apogee height: 824 km
right ascension of ascending node: 52.7426°
argument of perigee: 322.4027°
revolutions per day: 14.21430958
mean anomaly at epoch: 37.6793°

The dashed part of the orbit path shows where the satellite is in the earth's shadow,  

DLR